Regional Weather Roundup
Issued by NWS Newport/Morehead, NC

Current Version | Previous Version | Text Only | Print | Product List | Glossary On
Versions: 1 2 3 4 5 6 7 8 9 10 11 12 13 14 15 16 17 18 19 20 21 22 23 24 25 26 27 28 29 30 31 32 33 34 35 36 37 38 39 40 41 42 43 44 45 46 47 48 49 50
000
ASUS42 KMHX 251613
RWRMHX
WEATHER ROUNDUP FOR EASTERN NORTH CAROLINA
NATIONAL WEATHER SERVICE NEWPORT/MOREHEAD CITY NC
1200 PM EDT TUE APR 25 2017

NOTE: "FAIR" INDICATES FEW OR NO CLOUDS BELOW 12,000 FEET
WITH NO SIGNIFICANT WEATHER AND/OR OBSTRUCTIONS TO VISIBILITY

NCZ015>017-031-032-045>047-102-103-251700-
NORTH COAST

CITY           SKY/WX    TMP DP  RH WIND       PRES   REMARKS
EDENTON        MOSUNNY   72  62  72 S6        29.65S
ELIZABETH CITY MOSUNNY   72  64  76 E9        29.65S
KITTY HAWK     MOSUNNY   72  62  71 CALM      29.65S
MANTEO         MOSUNNY   73  63  69 SE8       29.66S

$$

NCZ045>047-081-094-103-104-251700-
CENTRAL COAST

CITY           SKY/WX    TMP DP  RH WIND       PRES   REMARKS
FRISCO         RAIN      62  59  90 W3        29.67R VSB 1/2

$$

NCZ095-097-098-100-101-251700-
SOUTHERN COAST

CITY           SKY/WX    TMP DP  RH WIND       PRES   REMARKS
BEAUFORT       CLOUDY    68  66  93 SW6       29.64R
CEDAR ISLAND   NOT AVBL
JACKSONVILLE   PTSUNNY   72  61  68 CALM      29.61F
PINEY ISLAND   CLOUDY   N/A N/A N/A NE6       29.62F
WILMINGTON     MOSUNNY   71  60  68 W12       29.63S


$$

NCZ011>013-027>030-043-044-078>080-089-090>093-098-251700-
COASTAL PLAIN

CITY           SKY/WX    TMP DP  RH WIND       PRES   REMARKS
AHOSKIE          N/A     69  60  72 SE3       29.63R
CLINTON        MOSUNNY   67  63  87 CALM      29.63F
ELIZABETHTOWN  MOSUNNY   66  64  93 SW7       29.64F
GOLDSBORO      MOSUNNY   70  63  78 CALM      29.61F
GREENVILLE     PTSUNNY   70  61  73 CALM      29.66S
HAVELOCK       LGT RAIN  71  63  75 VRB3      29.64F
KENANSVILLE    PTSUNNY   70  63  78 N3        29.63S
KINSTON        PTSUNNY   72  61  68 CALM      29.63S
NEW BERN       MOSUNNY   69  63  81 NE3       29.63F
RICHLANDS      PTSUNNY   70  64  81 CALM      29.63S
ROCKY MOUNT    MOSUNNY   70  61  73 SW6       29.62F
WASHINGTON     CLOUDY    68  60  76 CALM      29.63F
WHITEVILLE     CLOUDY    62  59  92 CALM      29.66F FOG

$$

AMZ130-135-150-152-154-156-158-170-250-252-270-ANZ085-086-088-633-658-670-251700-
MARINE OBSERVATIONS

STATION/POSITION TIME  TEMP    WIND        PRES    WAVE   SWELL
                       AIR SEA DIR/SP/G            HT/PER HT/PER
                 (UTC) (F)     (DEG/KT/KT) (MB)    (FT/S) (FT/S)
CHESAPEAKE LIGHT NOT AVBL
64 E VA BEACH    1550   60 54  110/ 16/ 17 1005.5   14/11  13/11
DUCK             1548   65 60  120/  9/  9 1003.7
2 E DUCK         1600      60                N/A    10/10   7/12
OREGON INLET     1542   69 63   50/  6/  7 1004.0
13E OREGON INLT  1548      58                N/A     8/11   8/11
HATTERAS CG      1548   63 67  250/  5/  6 1004.5
DIAMOND BUOY     1550   68 78  260/ 14/ 19 1004.1   11/11  10/11
CAPE LOOKOUT     1600   65      CALM  /  1 1003.6
BEAUFORT LAB     1548   68 65  210/  6/  6 1002.9
30 SE NEW RVR IN 1508   67     260/ 14/ 19 1003.7
30 SE NEW RVR IN 1543      72                N/A     7/11   5/11
27 SE WRIGHTSVLE 1508   67 72  230/ 14/ 19 1003.2
5 SE WRIGHTSVLE  1508   66 69  230/  8/ 12 1003.4
225 S CAPE HAT   1550   74 75  210/ 17/ 23 1007.1    9/ 9   7/ 9
41 SE CHARLESTON 1550   65 73  260/ 19/ 23 1006.0    6/11   5/11

$$



USA.gov is the U.S. government's official web portal to all federal, state and local government web resources and services.